PEGASUS DEB

Satellite information

Favourite Embed

Satellite Type and Status

DEBRISIN ORBIT

Key statistics

Satellite PEGASUS DEB at a glance.

Uptime

11372

Days in orbit

Revolutions

≈ 14.9

Per day

Orbit

LEO

Low Earth Orbit

Inclination

81.6

Latest

Satellite identification and parameters

Extended collection of information and parameters for PEGASUS DEB.

Object identification

Identified? True

Debris? True

Object name: PEGASUS DEB

International designator: 1994-029AFV

Object number (NORAD): 39922

Object ID (CCSDS): 39922

Country: UNITED STATES OF AMERICA (US)

Current information (Y/N): Y

RCS size: SMALL

Orbital parameters

Period: 96.844 minutes

Inclination: 81.5892 deg

SMA: 6985.686 km

Apoapsis: 692.229 km

Periapsis: 522.873 km

RAAN: 345.4135 deg

Eccentricy: 0.0121217

Argument of periapsis: 26.9411 deg

Mean anomaly: 333.8025 deg

Mean motion: 14.86925378 rev/day

Mean motion (dot): 0.00005459 rev/day2

B* drag term: 0.00053131 1/REarth

Two-line elements (TLE)

Creation date: July 5, 2025, 2:46 p.m.

Reference frame: TEME

Reference center: EARTH

Epoch: July 3, 2025, 5:16 p.m. UTC

TLE line 0: 0 PEGASUS DEB

TLE line 1: 1 39922U 94029AFV 25184.71955418 .00005459 00000-0 53131-3 0 9998

TLE line 2: 2 39922 81.5892 345.4135 0121217 26.9411 333.8025 14.86925378185980

Live tracking on map

Real-time ground track for satellite PEGASUS DEB.

In-orbit conjunctions

A list of the most updated potential collisions computed for object PEGASUS DEB.

Target Orbit TCA Probability of collision Miss distance Type
CZ-6 R/B LEO 2025-02-07 21:31:25 0.0001495763 238.0 (m) ROCKET BODY
DELTA 4 DEB SSO 2024-08-04 03:04:10 0.0001308714 366.0 (m) DEBRIS

Associated space launch

PEGASUS DEB was lifted into orbit during the mission ‘Pegasus HAPS | Space Test Experiments Platform 2 (STEP-2)’, on board a Pegasus HAPS space rocket.

The launch took place on May 19, 1994, 5:03 p.m. from Edwards Air Force Base.

For more information about the launch, click the button.

Launch to space Pegasus HAPS | Space Test Experiments Platform 2 (STEP-2)
Pegasus HAPS | Space Test Experiments Platform 2 (STEP-2)

Agency: N/A

Status: Launch Successful

Launch date: May 19, 1994, 5:03 p.m. UTC

Rocket: Pegasus HAPS

Launch pad: Edwards Air Force Base

Location: Air launch to orbit

...

Latest news about this satellite

There are no fresh news available about this satellite. Check back as we update our databases every day.


Newsletter sign-up

Weekly statistics, charts and insights to help you stay on top of the space industry.